Location: Newark
(47.4333°N, 19.2500°E)
Time: 08:56:11
(UTC+00:00)

AO-85 - Visible Passes

Search period start: 09 May 2021 00:00
Search period end: 19 May 2021 00:00
Orbit: 521 x 762 km, 64.8° (Epoch: 12 March)

Date Brightness Start Highest point End Pass type
(mag) Time Alt. Az. Time Alt. Az. Time Alt. Az.
09 May ? 01:02:05 28° WSW 01:04:06 47° NW 01:08:43 10° NNE visible
09 May ? 23:48:02 58° SE 23:48:05 58° ESE 23:52:42 10° NE visible
10 May ? 01:25:36 13° W 01:28:51 27° NW 01:32:57 10° NNE visible
10 May ? 22:33:56 16° E 22:33:56 16° E 22:35:41 10° ENE visible
11 May ? 00:11:30 51° WSW 00:12:27 67° NW 00:17:12 10° NE visible
11 May ? 01:50:41 10° WNW 01:53:49 18° NNW 01:57:05 10° NNE visible
11 May ? 22:57:21 36° E 22:57:21 36° E 23:00:59 10° NE visible
12 May ? 00:34:55 22° W 00:37:05 35° NW 00:41:29 10° NNE visible
12 May ? 02:16:48 10° NW 02:18:57 13° NNW 02:21:10 10° N visible
12 May ? 23:20:43 83° S 23:20:53 86° SE 23:25:38 10° NE visible
13 May ? 00:58:25 10° W 01:01:57 21° NNW 01:05:40 10° NNE visible
13 May ? 22:06:29 23° E 22:06:29 23° E 22:09:07 10° ENE visible
13 May ? 23:44:02 36° W 23:45:23 47° NW 23:50:01 10° NNE visible
14 May ? 01:24:20 10° WNW 01:27:01 15° NNW 01:29:47 10° NNE visible
14 May ? 22:29:45 56° E 22:29:45 56° E 22:34:01 10° NE visible
15 May ? 00:07:18 15° W 00:10:08 27° NW 00:14:15 10° NNE visible
15 May ? 01:50:36 10° NNW 01:52:14 11° NNW 01:53:53 10° N visible
15 May ? 21:15:25 15° E 21:15:25 15° E 21:17:01 10° ENE visible
15 May ? 22:52:57 54° W 22:53:44 66° NW 22:58:30 10° NNE visible
16 May ? 00:31:58 10° WNW 00:35:05 18° NNW 00:38:22 10° NNE visible
16 May ? 02:16:48 10° N 02:17:33 10° N 02:18:17 10° N visible
16 May ? 21:38:31 37° E 21:38:31 37° E 21:42:17 10° NE visible
16 May ? 23:16:03 21° W 23:18:22 35° NW 23:22:47 10° NNE visible
17 May ? 00:58:04 10° NW 01:00:15 13° NNW 01:02:28 10° N visible
17 May ? 20:24:00 11° E 20:24:00 11° E 20:24:18 10° E visible
17 May ? 22:01:33 67° SSW 22:02:09 87° SE 22:06:56 10° NE visible
17 May ? 23:39:42 10° W 23:43:14 21° NNW 23:46:58 10° NNE visible
18 May ? 01:24:24 10° NNW 01:25:32 11° N 01:26:39 10° N visible
18 May ? 20:46:54 26° ESE 20:46:54 26° ESE 20:50:25 10° ENE visible
18 May ? 22:24:25 26° WSW 22:26:39 46° NW 22:31:19 10° NNE visible
